Lid_Strength_Index
4 4 4 4 4 3 3 3 3 3 3 3 3 2 2 2 2 4 9 8 6 -1 0 9 9 10 4 5 4 5 11 13 12 11 10 7 8 6 4 6 5 5 5 4 2
4 4 4 4 4 4 4 3 3 3 3 3 3 2 2 2 5 6 3 0 -1 -0 9 10 10 10 6 6 6 8 11 11 8 8 8 7 7 7 7 7 7 6 4 3 3
4 4 4 4 4 4 4 3 3 3 3 3 3 2 2 2 9 10 -2 -1 -1 1 9 9 10 10 8 6 7 8 10 7 7 6 6 7 7 6 8 9 7 8 6 4 4
4 4 4 4 4 4 4 4 3 3 3 3 2 2 1 4 13 6 -2 -1 -1 6 9 10 10 10 11 8 6 9 7 6 6 6 6 8 6 7 7 7 5 5 5 4 5
4 4 4 4 4 4 4 3 4 4 3 3 2 2 5 11 9 5 -2 -1 5 9 10 11 12 10 10 10 9 8 7 6 6 6 6 6 7 7 7 5 4 4 4 5 5
4 4 4 4 4 4 4 4 4 4 3 3 2 1 8 12 8 3 4 2 8 10 11 12 11 9 11 11 10 7 6 6 6 6 6 7 8 7 7 5 5 5 5 5 5
4 4 4 4 4 4 4 4 4 4 3 3 2 2 8 9 6 5 5 3 3 9 11 9 10 10 10 11 9 8 8 7 7 6 7 6 9 9 6 5 6 6 5 5 4
4 4 4 4 4 4 4 4 4 3 3 2 2 6 11 7 5 4 6 6 5 6 9 9 9 10 11 9 8 10 9 12 8 7 7 7 12 8 6 6 7 6 6 5 5
4 4 4 4 4 4 4 4 4 2 2 1 8 9 10 3 6 5 5 7 7 8 8 7 10 12 10 12 12 11 13 12 10 7 8 8 11 7 6 7 7 7 6 6 5
4 4 4 4 4 4 5 4 4 3 2 2 3 11 10 9 7 5 6 6 7 9 9 11 12 13 13 14 15 13 13 11 11 8 8 10 10 8 7 7 8 7 6 6 6
4 4 4 4 5 5 6 9 8 9 7 10 11 10 9 7 5 7 7 7 8 9 13 13 13 15 12 12 11 12 11 12 10 8 9 10 10 9 8 8 8 8 7 7 6
4 4 4 5 5 5 7 9 8 8 10 7 6 7 6 6 7 7 7 8 10 11 12 14 15 13 11 11 11 11 12 13 10 9 9 9 10 9 8 8 8 7 7 7 6
4 4 5 5 5 7 9 7 6 7 10 8 7 7 6 6 8 8 7 9 11 12 13 14 12 10 11 12 12 14 14 13 12 10 9 9 11 11 8 8 7 6 6 6 6
4 4 4 5 7 8 8 7 6 6 14 12 10 7 6 6 9 6 7 8 11 12 12 13 10 10 12 12 13 15 11 11 11 11 14 11 15 11 10 10 8 7 7 6 6
4 4 4 5 7 9 7 6 6 10 19 11 10 6 8 9 10 9 8 9 11 12 13 13 12 11 11 12 12 14 10 11 11 13 13 13 14 12 11 11 9 8 7 6 6
4 4 4 7 7 7 6 6 8 15 18 11 9 10 10 10 9 9 9 9 9 11 13 12 10 10 10 11 11 11 13 12 13 14 16 15 14 13 12 10 9 7 7 6 6
5 5 5 5 8 7 6 8 14 17 11 11 12 11 12 11 10 10 10 12 13 15 15 13 12 11 10 14 13 13 15 18 17 16 16 14 14 12 10 8 8 7 6 6 5
6 6 5 5 7 6 7 10 17 13 12 9 9 11 13 11 11 11 11 13 13 13 16 15 16 12 10 12 14 14 15 17 18 18 16 14 16 11 9 8 7 6 6 5 5
6 8 9 7 5 7 8 14 14 12 9 9 10 13 13 12 11 11 12 13 11 12 14 16 15 11 10 12 12 15 15 14 15 17 16 15 12 9 8 8 7 7 7 7 5
9 9 6 6 6 8 10 13 11 9 8 9 13 12 13 12 14 13 13 11 11 11 12 14 16 13 10 12 12 13 12 15 16 17 19 16 15 13 10 9 7 7 7 6 5
9 8 6 6 7 8 13 12 9 7 7 10 12 12 12 12 14 15 12 11 10 11 11 13 14 14 13 14 14 14 14 15 14 16 17 17 15 10 9 8 8 7 6 6 6
10 9 7 7 10 12 12 10 8 8 7 8 10 11 11 11 12 14 13 10 9 11 12 12 14 15 13 13 13 13 13 14 15 16 16 15 14 9 8 7 8 7 6 6 5
9 9 7 8 13 12 10 9 8 9 8 9 9 9 9 11 13 12 13 10 9 10 12 12 16 17 15 15 15 15 14 15 15 15 15 15 13 10 9 8 7 7 7 6 6
9 10 9 9 11 12 12 11 11 7 8 7 8 8 9 11 11 12 10 8 8 10 5 8 16 15 16 15 13 13 12 13 14 15 15 14 13 12 8 8 7 7 7 6 6
10 9 9 11 10 10 10 10 11 11 8 8 9 9 10 12 11 12 10 9 8 7 10 12 14 15 14 13 13 12 12 13 13 14 13 13 13 11 10 8 7 7 6 7 7
9 10 10 9 9 10 10 11 11 10 10 10 11 9 9 11 10 12 11 11 11 9 14 14 14 15 15 14 12 12 11 12 12 13 12 13 13 10 9 6 7 6 6 7 7
10 9 8 10 10 11 11 10 10 9 8 7 8 9 10 9 7 8 8 8 9 11 14 15 14 16 15 14 13 15 12 12 12 11 11 12 11 9 9 7 7 6 6 6 6